Location: Veyrier
(46.1830°N, 6.2000°E)
Time: 15:30:15
(UTC+01:00)

Daily predictions for brighter satellites

Satellite Brightness Start Highest point End
(mag) Time Altitude Azimuth Time Altitude Azimuth Time Altitude Azimuth
Thor Agena Rocket 4.4 17:14:20 10° NE 17:18:55 31° E 17:23:31 10° SSE
Cosmos 2341 Rocket 4.0 17:13:10 10° N 17:19:24 72° E 17:25:36 10° SSE
COSMOS 2406 3.2 17:15:09 10° NNW 17:20:55 82° ENE 17:26:39 10° SSE
MTI 4.2 17:23:07 10° N 17:26:26 66° WNW 17:29:42 10° SSW
MOS 1 4.4 17:22:32 10° SE 17:28:00 53° ENE 17:33:29 10° N
ISS -2.7 17:25:03 10° SW 17:28:12 45° SE 17:31:23 10° ENE
Cosmos 2251 Rocket 3.9 17:24:02 10° N 17:29:10 44° ENE 17:34:15 10° SE
BREEZE M DEB (TANK) 2.5 17:27:30 10° WNW 17:29:58 50° N 17:35:36 10° E
Meteor 1-5 Rocket 4.1 17:26:04 10° N 17:31:26 66° ENE 17:36:57 10° SSE
SMAP 3.3 17:27:16 10° SE 17:31:42 46° ENE 17:36:10 10° N
Cosmos 1238 Rocket 3.8 17:29:44 10° SE 17:31:43 17° E 17:33:46 10° NE
CZ-2C R/B 2.6 17:29:27 10° SE 17:34:18 52° ENE 17:39:17 10° N
Cosmos 158 Rocket 4.1 17:31:12 10° NNW 17:36:37 86° WSW 17:41:53 10° SSE
SL-16 R/B 4.3 17:33:19 10° N 17:38:26 28° WNW 17:43:32 10° WSW
Cosmos 2082 Rocket 3.3 17:34:13 10° N 17:38:36 22° NE 17:42:57 10° E
CZ-4 R/B 1.4 17:36:01 10° SSE 17:40:09 69° ENE 17:44:17 10° N
Cosmos 1833 Rocket 3.9 17:36:37 10° N 17:40:46 20° NE 17:44:53 10° E
SJ-12 3.9 17:40:19 10° SSE 17:44:22 64° ENE 17:48:27 10° N
Cosmos 1975 3.8 17:42:44 10° NNE 17:46:15 27° ENE 17:49:42 10° SE
Okean 3 4.1 17:49:09 10° SSW 17:53:22 58° W 17:57:36 10° N
BREEZE-M DEB (TANK) 4.4 17:43:16 10° W 17:53:36 65° NNW 17:56:30 16° ENE
Abrixas 2.7 17:52:26 10° WNW 17:55:21 53° N 17:57:13 19° ENE
Genesis I 3.8 17:55:58 10° NNW 17:59:36 34° NE 18:02:52 12° ESE
USA 234 3.3 17:54:29 12° NE 18:00:39 87° SE 18:07:12 10° SW
Cosmos 2263 Rocket 3.9 17:57:49 10° WSW 18:02:38 29° NW 18:07:31 10° N
SL-27 R/B 2.7 17:59:56 10° NNW 18:03:37 75° WSW 18:07:14 10° SSE
Cosmos 1544 Rocket 3.5 18:02:36 10° N 18:07:05 87° ENE 18:11:33 10° S
COSMO-SKYMED 1 3.4 18:05:13 14° NE 18:08:16 30° E 18:12:06 10° SSE
Cosmos 1484 Rocket 3.0 18:05:29 10° SE 18:09:01 40° ENE 18:12:32 10° N
Cosmos 1975 Rocket 3.9 18:09:06 10° SSW 18:13:18 52° WNW 18:17:32 10° N
GEOS 3 Rocket 3.6 18:10:47 10° ESE 18:15:46 56° NE 18:20:47 10° NNW
NOSS 3-3 (A) 4.3 18:11:24 10° S 18:17:17 47° ESE 18:21:36 20° NE
NOSS 3-3 (C) 4.4 18:11:31 10° S 18:17:24 46° ESE 18:21:41 20° NE
Cosmos 1500 3.4 18:16:10 10° N 18:19:53 47° ENE 18:23:36 10° SSE
Meteor 1-18 Rocket 4.2 18:16:23 10° S 18:22:00 75° E 18:27:46 10° NNE
ATLAS 2AS CENTAUR R/B 3.4 18:15:30 10° NW 18:23:34 70° WSW 18:31:06 10° SSE
SPOT 3 Rocket 4.2 18:18:56 10° S 18:24:03 57° W 18:29:09 10° NNW
SL-8 Rocket 4.5 18:18:30 10° NNW 18:24:35 62° W 18:30:38 10° S
Cosmos 1844 Rocket 3.0 18:22:09 10° SW 18:27:43 67° WNW 18:33:13 11° NNE
Cosmos 1536 Rocket 3.5 18:25:22 10° S 18:29:48 77° E 18:34:18 10° NNE
Cosmos 2366 rocket 4.3 18:29:23 10° NNW 18:35:44 70° W 18:41:59 10° S
YAOGAN 1 3.9 18:33:18 10° S 18:37:25 42° W 18:41:32 10° NNW
Okean 1 3.3 18:37:12 10° S 18:41:16 89° WNW 18:44:26 16° N
Cosmos 1844 4.0 18:38:15 10° SW 18:43:46 66° WNW 18:48:19 16° NNE
IDEFIX/ARIANE 42P 3.9 18:39:21 10° SSW 18:44:15 41° W 18:49:09 10° NNW
Cosmos 1934 Rocket 4.3 18:40:00 10° N 18:45:45 39° ENE 18:51:34 10° SE
Cosmos 2297 4.1 18:40:39 10° S 18:45:54 42° ESE 18:47:09 36° ENE
Cosmos 1812 3.5 18:43:34 10° SSW 18:47:20 52° WNW 18:51:02 11° N
Cosmos 921 Rocket 4.1 18:44:33 10° SSE 18:47:07 28° SE 18:47:07 28° SE
Cosmos 1809 Rocket 4.4 18:42:34 10° N 18:48:47 87° E 18:54:55 10° S
MSX 4.5 18:44:35 10° S 18:50:13 57° W 18:55:54 10° NNW
Tiangong 1 3.5 18:49:23 10° SSW 18:50:22 14° S 18:50:22 14° S
OPS 8737 4.5 18:48:06 10° SW 18:51:17 62° NW 18:51:32 59° NNW
COSMOS 2487 2.4 18:50:29 10° NNW 18:54:05 83° WSW 18:55:44 30° SSE
Timation 2 Rocket 4.1 18:47:24 10° NNW 18:54:15 79° ENE 19:01:09 10° SSE
SKYMED 2 3.5 18:53:51 23° NNE 18:56:30 85° WNW 19:00:51 10° SSW
Cosmos 1346 Rocket 2.6 18:53:54 10° S 18:57:48 90° E 18:58:31 58° N
CZ-3B DEB 2.6 18:55:28 10° WSW 18:59:49 83° NNW 19:05:01 29° NE
Cosmos 2278 Rocket 2.2 18:54:43 10° SSW 19:00:22 78° WNW 19:03:43 26° NNE
Cosmos 2239 Rocket 4.4 18:55:04 10° N 19:01:16 64° ENE 19:07:22 10° SSE
Okean 1-7 Rocket 3.5 18:57:50 10° S 19:02:10 62° ESE 19:02:10 62° ESE
ISS -2.1 19:01:34 10° W 19:04:10 38° NW 19:04:10 38° NW
BREEZE M DEB (TANK) 3.1 18:58:45 10° SW 19:05:16 43° SSE 19:05:16 43° SSE
Meteor 1-19 Rocket 4.2 19:03:01 10° S 19:08:44 66° E 19:11:06 36° NNE
FengYun 1-2 T 4.5 19:09:21 47° NE 19:09:21 47° NE 19:14:13 10° N
Cosmos 1821 Rocket 3.8 19:04:36 10° N 19:10:43 72° E 19:16:47 10° SSE
Cosmos 2082 Rocket 2.3 19:17:38 10° NNW 19:23:18 75° WSW 19:27:24 19° SSE
NOAA 12 4.2 19:18:03 10° S 19:23:19 72° WSW 19:28:37 10° NNW
Cosmos 1833 Rocket 2.6 19:19:45 10° NNW 19:25:26 84° WSW 19:27:34 40° SSE
Meteor 1-13 Rocket 4.3 19:20:09 10° SSW 19:25:49 77° WNW 19:29:35 23° N
METEOR-M 4.2 19:25:20 10° S 19:30:39 74° WSW 19:36:02 10° NNW
BREEZE-M R/B 3.5 19:27:19 10° WSW 19:35:54 88° WNW 19:35:54 88° WNW
Nadezhda 3 Rocket 4.5 19:29:57 10° SSW 19:36:03 59° WNW 19:42:16 10° N
SL-8 R/B 4.2 19:33:01 10° WSW 19:36:52 58° WSW 19:36:52 58° WSW
USA 234 3.9 19:41:49 38° NNE 19:43:20 44° NNW 19:49:27 10° W
COSMO-SKYMED 1 4.4 19:42:26 20° NNW 19:44:22 28° WNW 19:48:05 10° SW
Timation 1 Rocket 4.3 19:40:14 10° SSW 19:45:54 81° SW 19:45:54 81° SW
Meteor 2-4 Rocket 4.4 19:48:29 10° SSW 19:52:01 42° SSW 19:52:01 42° SSW
NOSS 3-4 (A) 3.7 19:52:22 10° NW 19:59:22 87° SW 19:59:29 86° SSW
NOSS 3-4 (C) 3.7 19:52:28 10° NW 19:59:29 87° SW 19:59:33 87° SSW
FALCON 9 R/B 3.9 20:03:17 10° WSW 20:16:40 36° SSW 20:17:12 35° S
CZ-3B DEB 4.4 21:29:15 10° WNW 21:33:39 42° NW 21:33:39 42° NW
